sat.trackr.live / text

‹ back to catalog

STARLINK-36188

NORAD 67122 · 2025-299W

PAYLOAD ACTIVE UNKNOWN

§ Identity

Operator
Country
US
Launch date
2025-12-15
Launch site
AFETR
Launch vehicle
Mass (kg)
RCS (m²)

Purposes: comms

External: N2YO · Heavens-Above · Gunter

§ Orbital elements

Epoch: 2026-09-19T10:19:03.594144Z

Period
94.27 min
Inclination
43.0029°
Eccentricity
0.0001953
Mean motion
15.27575398 rev/d
Perigee alt
481.7 km
Apogee alt
484.4 km
Semi-major
6,861.2 km
B*
4.0154e-4
RAAN
155.0784°
Arg perigee
271.3817°
Mean anomaly
88.6810°
Rev number
4,274

§ Raw data

STARLINK-361881 67122U 25299W   26262.42990271  .00010802  00000+0  40154-3 0  99942 67122  43.0029 155.0784 0001953 271.3817  88.6810 15.27575398 42745

JSON: /api/v1/satellites/67122 · /tle

For live sub-satellite position, see the globe view (requires WebGL).

§ Visibility from observer

Set your observer location to see the next 7 days of passes ≥ 10°. The values pass through the URL so the page stays shareable.

No JS? Fill the form by hand. The geolocation button needs JavaScript.